Погода в Курчуме

Россия / Кировская область     57°56′06″N   50°17′42″E
темп.,
°C
ветер,
м/с
пор.,
м/с
влажн.,
%
обл.,
%
осадки,
мм/ч
давл.,
гПа
погр.,
м
28 февраля, вс
вс2800:00−19ссв459815 0.0 100886
03:00−20ссв469810 0.0 100991
06:00−22ссв479851 0.0 1010105
09:00−20ссв469427 0.0 1011242
12:00−16ссв469126 0.0 1011372
15:00−15с479058 0.0 1013506
18:00−19с3497100 0.0 101558
21:00−21ссв339881 0.0 101729
1 марта, пн
пн100:00−22с33960 0.0 101825
03:00−23с33950 0.0 102024
06:00−23с22960 0.0 102020
09:00−19з11930 0.0 102156
12:00−14юз34866 0.0 1019322
15:00−12ююз469032 0.0 1017381
18:00−15ююз599596 0.0 1014259
21:00−12ююз6119598 0.1 1011347
2 марта, вт
вт200:00−10ююз71395100 1.1 1006436
03:00−8ююз71395100 3.0 1002515
06:00−5ююз61296100 1.3 998495
09:00−1юз5998100 3.0 997411
12:000з58100100 1.6 995539
15:000ссз4797100 2.4 995479
18:00−4сз449390 0.0 99576
21:00−6зсз349672 0.0 99762
3 марта, ср
ср300:00−4зсз5995100 0.1 997272
03:00−5сз4994100 0.1 998304
06:00−9сз51195100 0.1 999298
09:00−8сз6119193 0.1 1001557
12:00−6сз6108891 0.0 1002661
15:00−5зсз698993 0.1 1003865
18:00−8з5119370 0.1 1003289
21:00−9з499574 0.1 1004228
4 марта, чт
чт400:00−11зюз349660 0.1 100365
03:00−9зюз489680 0.3 1002176
06:00−11юз469787 0.1 1001117
09:00−8ююз599691 0.1 998342
12:00−5ююз71193100 0.3 994622
15:00−4ю91495100 1.1 989870
18:00−2ююз81597100 2.1 985870
21:00−4зюз9168399 3.1 983794